Regional Weather Roundup
Issued by NWS

Home | Current Version | Previous Version | Text Only | Print | Product List | Glossary On
Versions: 1 2 3 4 5 6 7 8 9 10 11 12 13 14 15 16 17 18 19 20 21 22 23 24 25 26 27 28 29 30 31 32 33 34 35 36 37 38 39 40 41 42 43 44 45 46 47 48 49 50
000
ASUS45 KTFX 250919
RWRMT
MONTANA HOURLY WEATHER ROUNDUP
NATIONAL WEATHER SERVICE GREAT FALLS MT
319 AM MDT FRI JUL 25 2014

NOTE: "FAIR" INDICATES FEW OR NO CLOUDS BELOW 12000 FEET WITH NO
SIGNIFICANT WEATHER AND/OR OBSTRUCTIONS TO VISIBILITY.

* THESE STATIONS ARE NOT UNDER NWS QUALITY CONTROL. THEY DO NOT
   REPORT WEATHER SUCH AS PRECIPITATION OR FOG.

MTZ001>007-043-251000-
WEST OF THE DIVIDE
CITY           SKY/WX    TMP DP  RH WIND       PRES   REMARKS
KALISPELL      CLOUDY    57  43  60 S6        30.04F
MISSOULA       PTCLDY    46  37  71 NW6       30.12S
BUTTE          CLEAR     43  32  65 SE5       30.15S
MULLAN PASS    CLEAR     45  37  74 VRB6      30.15F
* ESSEX        N/A       54  43  67 E2         N/A
* LINCOLN      N/A       48  36  63 W2G9       N/A
* LOOKOUT PASS N/A       47  42  83 NW1        N/A
* POLSON       N/A       49  38  66 SW1        N/A
* RONAN APT    PTCLDY    54  46  74 N/A        N/A
* SEELEY LAKE  N/A       38  35  89 N3         N/A
* THOMP F APT  CLEAR     45  19  35 NE3G9      N/A
$$

MTZ008-052>055-251000-
SOUTHWEST MONTANA
CITY           SKY/WX    TMP DP  RH WIND       PRES   REMARKS
BOZEMAN        CLEAR     46  37  71 S7        30.09S
DILLON         CLEAR     54  30  40 S9        30.10F
W YELLOWSTONE  CLEAR     50  23  35 S7        30.18S
* THREE FORKS  CLEAR     46  46 100 N/A        N/A
* BOULDER HILL N/A       48  29  48 SW2        N/A
* MONIDA PASS  N/A       44  22  42 W3         N/A
* RAYNOLDS PAS N/A       43  30  60 S5         N/A
* WHITEHALL    N/A       57  35  44 NW9G14     N/A
* WISE RIVER   N/A       43  32  65 E2         N/A
$$

MTZ009>010-012-014-046-048-049-054-251000-
EAST SLOPES AND CENTRAL MONTANA
CITY           SKY/WX    TMP DP  RH WIND       PRES   REMARKS
CUT BANK       PTCLDY    55  37  51 W17G28    29.90F
GREAT FALLS    CLEAR     55  36  49 SW18      29.97F
HELENA         CLEAR     57  36  46 SW5       30.06R
MALMSTROM AFB  CLEAR     55  36  49 SW18      29.98F
* CONRAD       CLEAR     54  43  67 SW7        N/A
* DEARBORN     N/A       61  34  36 S15G23     N/A
* EAST GLACIER N/A       53  36  53 W16G26     N/A
* MONARCH      N/A       51  27  39 SW13G19    N/A
* PENDROY      N/A       51  39  64 W11G16     N/A
* SAINT MARY   N/A       53  39  59 S10G26     N/A
* SWEET GRASS  N/A       54  38  55 SW17G26    N/A
* WHITE SULPH  N/A       52  34  50 W3G18      N/A
$$

MTZ011-013-016-021-035-040-045-047-050-051-251000-
NORTH CENTRAL MONTANA
CITY           SKY/WX    TMP DP  RH WIND       PRES   REMARKS
HAVRE          CLEAR     52  37  57 SW14      29.86R
LEWISTOWN      PTCLDY    57  34  42 W8        29.99S
* FORT BENTON  CLEAR     57  36  46 SW12G18   29.91F
* CHESTER      N/A       58  37  46 W10G17     N/A
* DENTON       N/A       60  34  38 SW19G24    N/A
* GEYSER       N/A       57  32  39 W14G23     N/A
* JUDITH GAP   N/A       51  31  46 S4         N/A
* LOMA         N/A       58  36  44 SW18G27    N/A
$$

MTZ017>020-022>027-061-062-251000-
NORTHEAST MONTANA
CITY           SKY/WX    TMP DP  RH WIND       PRES   REMARKS
GLASGOW        CLEAR     54  37  53 W8        29.88F
GLENDIVE       CLEAR     52  46  80 W8        29.93R
JORDAN         CLEAR     46  39  77 CALM      29.94S
SIDNEY         CLEAR     54  48  80 CALM      29.88R
WOLF POINT     CLEAR     54  50  86 SW3       29.89R
* BEAVER HILL  N/A       57  43  60 N/A        N/A
* CIRCLE       N/A       52  50  93 N/A        N/A
* LINDSAY DVD  N/A       49  44  83 W4         N/A
* NAVAJO       N/A       52  48  86 W10        N/A
$$

MTZ028>042-056>058-251000-
SOUTHCENTRAL AND SOUTHEAST MONTANA
CITY           SKY/WX    TMP DP  RH WIND       PRES   REMARKS
BAKER          CLEAR     54  46  74 W7        29.93R
BILLINGS       CLEAR     63  34  34 N7        30.00F
LIVINGSTON     CLEAR     52  30  43 SW5       30.05F
MILES CITY     CLEAR     55  50  83 SW6       29.94S
* LAUREL APT   CLEAR     57  37  47 N/A        N/A
* ROUNDUP APT  CLEAR     57  28  33 N/A        N/A
* ALZADA       N/A       57  48  72 W2         N/A
* HYSHAM       N/A       61  35  38 N1         N/A
* LAME DEER    N/A       59  43  56 SE4        N/A
* REED POINT   N/A       60  30  32 SE8        N/A
* ROSCOE HILL  N/A       55  30  39 SE9        N/A
$$

REGIONAL REPORTS...DAKOTAS
CITY           SKY/WX    TMP DP  RH WIND       PRES   REMARKS
WILLISTON      CLEAR     55  52  90 CALM      29.84R
DICKINSON      CLEAR     55  52  90 NW9       29.85R
CROSBY         N/A       54  54 100 SW7       29.82R
TIOGA          CLEAR     54  54 100 W8        29.86R
WATFORD CITY   CLEAR     52  52 100 SW7       29.84R
BISMARCK       PTCLDY    66  63  90 NE7       29.76R
GRAND FORKS    MOCLDY    68  63  84 SE16      29.70F
FARGO          CLOUDY    68  61  78 SE7       29.74S
BUFFALO SD     CLEAR     61  48  62 NW10      29.84R
RAPID CITY     CLEAR     66  52  61 NW22G31   29.88R
$$

REGIONAL REPORTS...WYOMING/IDAHO/WASHINGTON
CITY           SKY/WX    TMP DP  RH WIND       PRES   REMARKS
GILLETTE       PTCLDY    54  46  74 NW3       30.02S
SHERIDAN       CLEAR     55  48  77 CALM      30.01S
YELLOWSTONE LA CLEAR     34  25  70 NW3       30.26F
SALMON         CLEAR     54  34  47 CALM      30.09S
MULLAN PASS    CLEAR     45  37  74 VRB6      30.15S
SAND POINT     CLOUDY    52  52 100 CALM      30.05F
SPOKANE        FAIR      54  43  67 S9        30.07F
$$

REGIONAL REPORTS...ALBERTA
CITY           SKY/WX    TMP DP  RH WIND       PRES   REMARKS
CALGARY        MOCLDY    55  34  45 W10       29.75S
LETHBRIDGE     CLEAR     57  41  55 W25G32    29.81F
MEDICINE HAT   CLEAR     52  45  77 SW14G20   29.76S
EDMONTON       LGT RAIN  52  48  86 W12G21    29.58F
WATERTON GATE  N/A       55  37  51 SW15G22    N/A
CARDSTON       N/A       55  41  59 W20G28     N/A
MILK RIVER     N/A       55  37  51 W17G24     N/A
$$

REGIONAL REPORTS...SASKATCHEWAN
CITY           SKY/WX    TMP DP  RH WIND       PRES   REMARKS
SWIFT CURRENT  CLEAR     50  43  77 SW17      29.74S
REGINA         N/A       55  46  72 SW13G21   29.76F
VAL MARIE      N/A       48  43  83 SW8        N/A
ASSINIBOIA     N/A       50  46  86 SW10       N/A
CORONACH       N/A       52  48  86 SW9        N/A

$$



USA.gov is the U.S. government's official web portal to all federal, state and local government web resources and services.